Time,TemperatureF,DewpointF,PressureIn,WindDirection,WindDirectionDegrees,WindSpeedMPH,WindSpeedGustMPH,Humidity,HourlyPrecipIn,Conditions,Clouds,dailyrainin,SoftwareType,DateUTC
2013-07-09 00:01:00,71.8,69.7,30.08,South,180,0.0,0.0,93,0.00,,---,0.00,VWS V14.01,2013-07-09 04:01:00,
2013-07-09 00:02:00,71.8,69.7,30.08,South,178,0.0,0.0,93,0.00,,---,0.00,VWS V14.01,2013-07-09 04:02:00,
2013-07-09 00:07:00,71.8,69.7,30.08,South,178,0.0,0.0,93,0.00,,---,0.00,VWS V14.01,2013-07-09 04:07:00,
2013-07-09 00:12:00,71.7,69.6,30.08,South,178,0.0,0.0,93,0.00,,---,0.00,VWS V14.01,2013-07-09 04:12:00,
2013-07-09 00:17:00,71.6,69.5,30.08,South,178,0.0,0.0,93,0.00,,---,0.00,VWS V14.01,2013-07-09 04:17:00,
2013-07-09 00:22:00,71.4,69.3,30.08,South,178,0.0,0.0,93,0.00,,---,0.00,VWS V14.01,2013-07-09 04:22:00,
2013-07-09 00:27:00,71.3,69.2,30.08,South,178,0.0,0.0,93,0.00,,---,0.00,VWS V14.01,2013-07-09 04:27:00,
2013-07-09 00:32:00,71.2,69.1,30.08,South,178,0.0,0.0,93,0.00,,---,0.00,VWS V14.01,2013-07-09 04:32:00,
2013-07-09 00:37:00,71.1,69.3,30.08,South,180,0.0,0.0,94,0.00,,---,0.00,VWS V14.01,2013-07-09 04:37:00,
2013-07-09 00:41:00,71.1,69.3,30.08,South,178,0.0,0.0,94,0.00,,---,0.00,VWS V14.01,2013-07-09 04:41:00,
2013-07-09 00:46:00,71.0,69.2,30.09,South,179,0.0,0.0,94,0.00,,---,0.00,VWS V14.01,2013-07-09 04:46:00,
2013-07-09 00:51:00,70.9,69.1,30.09,South,179,0.0,0.0,94,0.00,,---,0.00,VWS V14.01,2013-07-09 04:51:00,
2013-07-09 00:56:00,70.9,69.1,30.09,South,179,0.0,0.0,94,0.00,,---,0.00,VWS V14.01,2013-07-09 04:56:00,
2013-07-09 01:01:00,70.8,69.0,30.09,South,180,0.0,0.0,94,0.00,,---,0.00,VWS V14.01,2013-07-09 05:01:00,
2013-07-09 01:06:00,70.7,68.9,30.09,South,178,0.0,0.0,94,0.00,,---,0.00,VWS V14.01,2013-07-09 05:06:00,
2013-07-09 01:11:00,70.7,68.9,30.09,South,178,0.0,0.0,94,0.00,,---,0.00,VWS V14.01,2013-07-09 05:11:00,
2013-07-09 01:16:00,70.6,68.8,30.09,South,178,0.0,0.0,94,0.00,,---,0.00,VWS V14.01,2013-07-09 05:16:00,
2013-07-09 01:21:00,70.6,68.8,30.09,South,179,0.0,0.0,94,0.00,,---,0.00,VWS V14.01,2013-07-09 05:21:00,
2013-07-09 01:26:00,70.5,69.0,30.09,South,178,0.0,0.0,95,0.00,,---,0.00,VWS V14.01,2013-07-09 05:26:00,
2013-07-09 01:31:00,70.5,69.0,30.08,South,178,0.0,0.0,95,0.00,,---,0.00,VWS V14.01,2013-07-09 05:31:00,
2013-07-09 01:36:00,70.4,68.9,30.08,South,178,0.0,0.0,95,0.00,,---,0.00,VWS V14.01,2013-07-09 05:36:00,
2013-07-09 01:41:00,70.4,68.9,30.08,South,180,0.0,0.0,95,0.00,,---,0.00,VWS V14.01,2013-07-09 05:41:00,
2013-07-09 01:46:00,70.3,68.8,30.08,South,180,0.0,0.0,95,0.00,,---,0.00,VWS V14.01,2013-07-09 05:46:00,
2013-07-09 01:51:00,70.3,68.8,30.08,South,180,0.0,0.0,95,0.00,,---,0.00,VWS V14.01,2013-07-09 05:51:00,
2013-07-09 01:56:00,70.3,68.8,30.07,South,180,0.0,0.0,95,0.00,,---,0.00,VWS V14.01,2013-07-09 05:56:00,
2013-07-09 02:01:00,70.3,68.8,30.07,South,180,0.0,0.0,95,0.00,,---,0.00,VWS V14.01,2013-07-09 06:01:00,
2013-07-09 02:06:00,70.3,68.8,30.07,South,180,0.0,0.0,95,0.00,,---,0.00,VWS V14.01,2013-07-09 06:06:00,
2013-07-09 02:11:00,70.3,68.8,30.07,South,180,0.0,0.0,95,0.00,,---,0.00,VWS V14.01,2013-07-09 06:11:00,
2013-07-09 02:16:00,70.5,69.3,30.07,South,182,0.0,0.0,96,0.00,,---,0.00,VWS V14.01,2013-07-09 06:16:00,
2013-07-09 02:21:00,70.7,69.5,30.07,South,181,0.0,0.0,96,0.00,,---,0.00,VWS V14.01,2013-07-09 06:21:00,
2013-07-09 02:26:00,70.8,69.3,30.07,South,181,0.0,0.0,95,0.00,,---,0.00,VWS V14.01,2013-07-09 06:26:00,
2013-07-09 02:31:00,70.8,69.3,30.07,South,181,0.0,0.0,95,0.00,,---,0.00,VWS V14.01,2013-07-09 06:31:00,
2013-07-09 02:36:00,70.8,69.3,30.06,South,181,0.0,0.0,95,0.00,,---,0.00,VWS V14.01,2013-07-09 06:36:00,
2013-07-09 02:41:00,70.7,69.2,30.06,South,181,0.0,0.0,95,0.00,,---,0.00,VWS V14.01,2013-07-09 06:41:00,
2013-07-09 02:46:00,70.6,69.1,30.06,South,181,0.0,0.0,95,0.00,,---,0.00,VWS V14.01,2013-07-09 06:46:00,
2013-07-09 02:51:00,70.5,69.0,30.06,South,182,0.0,0.0,95,0.00,,---,0.00,VWS V14.01,2013-07-09 06:51:00,
2013-07-09 02:56:00,70.5,69.0,30.06,South,181,0.0,0.0,95,0.00,,---,0.00,VWS V14.01,2013-07-09 06:56:00,
2013-07-09 03:01:00,70.4,68.9,30.06,South,181,0.0,0.0,95,0.00,,---,0.00,VWS V14.01,2013-07-09 07:01:00,
2013-07-09 03:06:00,70.3,68.8,30.06,South,181,0.0,0.0,95,0.00,,---,0.00,VWS V14.01,2013-07-09 07:06:00,
2013-07-09 03:11:00,70.2,68.7,30.06,South,181,0.0,0.0,95,0.00,,---,0.00,VWS V14.01,2013-07-09 07:11:00,
2013-07-09 03:16:00,70.1,68.6,30.06,South,181,0.0,0.0,95,0.00,,---,0.00,VWS V14.01,2013-07-09 07:16:00,
2013-07-09 03:21:00,70.2,68.7,30.06,South,181,0.0,0.0,95,0.00,,---,0.00,VWS V14.01,2013-07-09 07:21:00,
2013-07-09 03:26:00,70.2,68.7,30.06,South,181,0.0,0.0,95,0.00,,---,0.00,VWS V14.01,2013-07-09 07:26:00,
2013-07-09 03:31:00,70.2,69.0,30.06,South,181,0.0,0.0,96,0.00,,---,0.00,VWS V14.01,2013-07-09 07:31:00,
2013-07-09 03:36:00,70.3,69.1,30.06,South,181,0.0,0.0,96,0.00,,---,0.00,VWS V14.01,2013-07-09 07:36:00,
2013-07-09 03:41:00,70.3,69.1,30.06,South,181,0.0,0.0,96,0.00,,---,0.00,VWS V14.01,2013-07-09 07:41:00,
2013-07-09 03:46:00,70.3,69.1,30.06,South,181,0.0,0.0,96,0.00,,---,0.00,VWS V14.01,2013-07-09 07:46:00,
2013-07-09 03:52:00,70.2,69.0,30.07,South,181,0.0,0.0,96,0.00,,---,0.00,VWS V14.01,2013-07-09 07:52:00,
2013-07-09 03:57:00,70.3,69.1,30.07,South,182,0.0,0.0,96,0.00,,---,0.00,VWS V14.01,2013-07-09 07:57:00,
2013-07-09 04:02:00,70.2,69.0,30.06,South,181,0.0,0.0,96,0.00,,---,0.00,VWS V14.01,2013-07-09 08:02:00,
2013-07-09 04:07:00,70.2,69.0,30.06,South,181,0.0,0.0,96,0.00,,---,0.00,VWS V14.01,2013-07-09 08:07:00,
2013-07-09 04:12:00,70.0,68.8,30.07,South,181,0.0,0.0,96,0.00,,---,0.00,VWS V14.01,2013-07-09 08:12:00,
2013-07-09 04:17:00,69.9,68.7,30.07,South,182,0.0,0.0,96,0.00,,---,0.00,VWS V14.01,2013-07-09 08:17:00,
2013-07-09 04:22:00,69.8,68.6,30.07,South,182,0.0,0.0,96,0.00,,---,0.00,VWS V14.01,2013-07-09 08:22:00,
2013-07-09 04:27:00,69.8,68.6,30.07,South,182,0.0,0.0,96,0.00,,---,0.00,VWS V14.01,2013-07-09 08:27:00,
2013-07-09 04:32:00,69.7,68.5,30.07,South,182,0.0,0.0,96,0.00,,---,0.00,VWS V14.01,2013-07-09 08:32:00,
2013-07-09 04:37:00,69.6,68.4,30.07,South,181,0.0,0.0,96,0.00,,---,0.00,VWS V14.01,2013-07-09 08:37:00,
2013-07-09 04:42:00,69.6,68.4,30.07,South,181,0.0,0.0,96,0.00,,---,0.00,VWS V14.01,2013-07-09 08:42:00,
2013-07-09 04:47:00,69.5,68.3,30.07,South,181,0.0,0.0,96,0.00,,---,0.00,VWS V14.01,2013-07-09 08:47:00,
2013-07-09 04:52:00,69.5,68.3,30.07,South,182,0.0,0.0,96,0.00,,---,0.00,VWS V14.01,2013-07-09 08:52:00,
2013-07-09 04:57:00,69.4,68.2,30.07,South,182,0.0,0.0,96,0.00,,---,0.00,VWS V14.01,2013-07-09 08:57:00,
2013-07-09 05:02:00,69.3,68.1,30.07,South,182,0.0,0.0,96,0.00,,---,0.00,VWS V14.01,2013-07-09 09:02:00,
2013-07-09 05:07:00,69.3,68.1,30.07,South,181,0.0,0.0,96,0.00,,---,0.00,VWS V14.01,2013-07-09 09:07:00,
2013-07-09 05:12:00,69.2,68.0,30.07,South,181,0.0,0.0,96,0.00,,---,0.00,VWS V14.01,2013-07-09 09:12:00,
2013-07-09 05:17:00,69.2,68.0,30.07,South,181,0.0,0.0,96,0.00,,---,0.00,VWS V14.01,2013-07-09 09:17:00,
2013-07-09 05:22:00,69.2,68.0,30.07,South,181,0.0,0.0,96,0.00,,---,0.00,VWS V14.01,2013-07-09 09:22:00,
2013-07-09 05:27:00,69.2,68.0,30.07,South,181,0.0,0.0,96,0.00,,---,0.00,VWS V14.01,2013-07-09 09:27:00,
2013-07-09 05:32:00,69.2,68.0,30.07,South,181,0.0,0.0,96,0.00,,---,0.00,VWS V14.01,2013-07-09 09:32:00,
2013-07-09 05:37:00,69.3,68.4,30.07,South,181,0.0,0.0,97,0.00,,---,0.00,VWS V14.01,2013-07-09 09:37:00,
2013-07-09 05:42:00,69.5,68.6,30.07,South,181,0.0,0.0,97,0.00,,---,0.00,VWS V14.01,2013-07-09 09:42:00,
2013-07-09 05:47:00,69.6,68.7,30.07,South,181,0.0,0.0,97,0.00,,---,0.00,VWS V14.01,2013-07-09 09:47:00,
2013-07-09 05:52:00,69.6,68.7,30.07,South,182,0.0,0.0,97,0.00,,---,0.00,VWS V14.01,2013-07-09 09:52:00,
2013-07-09 05:57:00,69.6,68.4,30.07,South,181,0.0,0.0,96,0.00,,---,0.00,VWS V14.01,2013-07-09 09:57:00,
2013-07-09 06:02:00,69.6,68.4,30.08,South,182,0.0,0.0,96,0.00,,---,0.00,VWS V14.01,2013-07-09 10:02:00,
2013-07-09 06:07:00,69.7,68.5,30.08,South,181,0.0,0.0,96,0.00,,---,0.00,VWS V14.01,2013-07-09 10:07:00,
2013-07-09 06:12:00,69.8,68.6,30.08,South,181,0.0,0.0,96,0.00,,---,0.00,VWS V14.01,2013-07-09 10:12:00,
2013-07-09 06:17:00,69.8,68.6,30.08,South,182,0.0,0.0,96,0.00,,---,0.00,VWS V14.01,2013-07-09 10:17:00,
2013-07-09 06:22:00,69.8,68.6,30.08,South,182,0.0,0.0,96,0.00,,---,0.00,VWS V14.01,2013-07-09 10:22:00,
2013-07-09 06:27:00,69.9,69.0,30.08,South,181,0.0,0.0,97,0.00,,---,0.00,VWS V14.01,2013-07-09 10:27:00,
2013-07-09 06:32:00,69.9,68.7,30.08,South,181,0.0,0.0,96,0.00,,---,0.00,VWS V14.01,2013-07-09 10:32:00,
2013-07-09 06:37:00,69.9,68.7,30.08,South,181,0.0,0.0,96,0.00,,---,0.00,VWS V14.01,2013-07-09 10:37:00,
2013-07-09 06:42:00,70.0,69.1,30.08,South,181,0.0,0.0,97,0.00,,---,0.00,VWS V14.01,2013-07-09 10:42:00,
2013-07-09 06:47:00,70.1,69.2,30.08,South,181,0.0,0.0,97,0.00,,---,0.00,VWS V14.01,2013-07-09 10:47:00,
2013-07-09 06:52:00,70.3,69.4,30.09,South,182,0.0,0.0,97,0.00,,---,0.00,VWS V14.01,2013-07-09 10:52:00,
2013-07-09 06:57:00,70.4,69.5,30.09,South,181,0.0,0.0,97,0.00,,---,0.00,VWS V14.01,2013-07-09 10:57:00,
2013-07-09 07:02:00,70.5,69.6,30.09,South,181,0.0,0.0,97,0.00,,---,0.00,VWS V14.01,2013-07-09 11:02:00,
2013-07-09 07:07:00,70.6,69.7,30.09,South,182,0.0,0.0,97,0.00,,---,0.00,VWS V14.01,2013-07-09 11:07:00,
2013-07-09 07:12:00,70.6,69.7,30.09,South,181,0.0,0.0,97,0.00,,---,0.00,VWS V14.01,2013-07-09 11:12:00,
2013-07-09 07:17:00,70.7,69.8,30.09,South,181,0.0,0.0,97,0.00,,---,0.00,VWS V14.01,2013-07-09 11:17:00,
2013-07-09 07:22:00,70.9,70.0,30.09,South,182,0.0,0.0,97,0.00,,---,0.00,VWS V14.01,2013-07-09 11:22:00,
2013-07-09 07:27:00,71.0,70.1,30.09,South,181,0.0,0.0,97,0.00,,---,0.00,VWS V14.01,2013-07-09 11:27:00,
2013-07-09 07:32:00,71.2,70.3,30.09,South,181,0.0,0.0,97,0.00,,---,0.00,VWS V14.01,2013-07-09 11:32:00,
2013-07-09 07:37:00,71.3,70.4,30.09,South,181,0.0,0.0,97,0.00,,---,0.00,VWS V14.01,2013-07-09 11:37:00,
2013-07-09 07:42:00,71.6,70.7,30.09,South,181,0.0,0.0,97,0.00,,---,0.00,VWS V14.01,2013-07-09 11:42:00,
2013-07-09 07:47:00,71.9,71.0,30.09,South,181,0.0,0.0,97,0.00,,---,0.00,VWS V14.01,2013-07-09 11:47:00,
2013-07-09 07:52:00,72.2,71.0,30.08,South,181,0.0,0.0,96,0.00,,---,0.00,VWS V14.01,2013-07-09 11:52:00,
2013-07-09 07:57:00,72.4,71.2,30.08,South,181,0.0,0.0,96,0.00,,---,0.00,VWS V14.01,2013-07-09 11:57:00,
2013-07-09 08:02:00,72.5,71.3,30.08,South,181,0.0,0.0,96,0.00,,---,0.00,VWS V14.01,2013-07-09 12:02:00,
2013-07-09 08:07:00,72.7,71.5,30.08,South,182,0.0,0.0,96,0.00,,---,0.00,VWS V14.01,2013-07-09 12:07:00,
2013-07-09 08:12:00,73.1,71.6,30.08,South,181,0.0,0.0,95,0.00,,---,0.00,VWS V14.01,2013-07-09 12:12:00,
2013-07-09 08:17:00,73.3,71.5,30.08,SSW,209,0.0,0.0,94,0.00,,---,0.00,VWS V14.01,2013-07-09 12:17:00,
2013-07-09 08:22:00,73.7,71.9,30.08,SSW,212,0.0,0.0,94,0.00,,---,0.00,VWS V14.01,2013-07-09 12:22:00,
2013-07-09 08:27:00,74.1,71.9,30.08,SSW,212,0.0,0.0,93,0.00,,---,0.00,VWS V14.01,2013-07-09 12:27:00,
2013-07-09 08:32:00,74.4,71.9,30.08,East,94,0.0,0.0,92,0.00,,---,0.00,VWS V14.01,2013-07-09 12:32:00,
2013-07-09 08:37:00,74.9,72.1,30.08,SW,220,0.0,1.0,91,0.00,,---,0.00,VWS V14.01,2013-07-09 12:37:00,
2013-07-09 08:42:00,75.5,72.7,30.08,SW,219,0.0,0.0,91,0.00,,---,0.00,VWS V14.01,2013-07-09 12:42:00,
2013-07-09 08:47:00,76.3,72.8,30.08,SW,225,0.0,0.0,89,0.00,,---,0.00,VWS V14.01,2013-07-09 12:47:00,
2013-07-09 08:52:00,77.2,73.4,30.08,SW,219,0.0,1.0,88,0.00,,---,0.00,VWS V14.01,2013-07-09 12:52:00,
2013-07-09 08:57:00,78.3,73.4,30.08,SSE,160,0.0,1.0,85,0.00,,---,0.00,VWS V14.01,2013-07-09 12:57:00,
2013-07-09 09:04:00,79.4,74.5,30.08,WSW,248,0.0,0.0,85,0.00,,---,0.00,VWS V14.01,2013-07-09 13:04:00,
2013-07-09 09:09:00,80.6,74.2,30.08,WNW,301,0.0,0.0,81,0.00,,---,0.00,VWS V14.01,2013-07-09 13:09:00,
2013-07-09 09:14:00,80.8,74.1,30.08,SW,233,0.0,0.0,80,0.00,,---,0.00,VWS V14.01,2013-07-09 13:14:00,
2013-07-09 09:19:00,81.1,74.3,30.08,South,187,0.0,0.0,80,0.00,,---,0.00,VWS V14.01,2013-07-09 13:19:00,
2013-07-09 09:24:00,81.0,73.9,30.08,SW,217,1.0,1.0,79,0.00,,---,0.00,VWS V14.01,2013-07-09 13:24:00,
2013-07-09 09:29:00,80.9,73.8,30.08,NNE,24,0.0,0.0,79,0.00,,---,0.00,VWS V14.01,2013-07-09 13:29:00,
2013-07-09 09:34:00,80.7,73.6,30.08,NNW,334,0.0,2.0,79,0.00,,---,0.00,VWS V14.01,2013-07-09 13:34:00,
2013-07-09 09:39:00,80.4,73.7,30.08,SE,124,0.0,1.0,80,0.00,,---,0.00,VWS V14.01,2013-07-09 13:39:00,
2013-07-09 09:44:00,80.5,73.8,30.08,WSW,240,0.0,2.0,80,0.00,,---,0.00,VWS V14.01,2013-07-09 13:44:00,
2013-07-09 09:49:00,80.9,74.5,30.08,NNW,327,0.0,1.0,81,0.00,,---,0.00,VWS V14.01,2013-07-09 13:49:00,
2013-07-09 09:54:00,81.2,74.4,30.08,NE,51,1.0,2.0,80,0.00,,---,0.00,VWS V14.01,2013-07-09 13:54:00,
2013-07-09 09:59:00,81.3,74.2,30.08,North,358,1.0,1.0,79,0.00,,---,0.00,VWS V14.01,2013-07-09 13:59:00,
2013-07-09 10:04:00,82.0,74.5,30.08,South,190,1.0,2.0,78,0.00,,---,0.00,VWS V14.01,2013-07-09 14:04:00,
2013-07-09 10:09:00,82.4,74.5,30.08,WNW,290,1.0,2.0,77,0.00,,---,0.00,VWS V14.01,2013-07-09 14:09:00,
2013-07-09 10:14:00,82.4,74.5,30.09,ESE,107,1.0,1.0,77,0.00,,---,0.00,VWS V14.01,2013-07-09 14:14:00,
2013-07-09 10:19:00,82.5,74.2,30.09,SW,234,0.0,3.0,76,0.00,,---,0.00,VWS V14.01,2013-07-09 14:19:00,
2013-07-09 10:24:00,82.3,74.4,30.09,WSW,247,2.0,3.0,77,0.00,,---,0.00,VWS V14.01,2013-07-09 14:24:00,
2013-07-09 10:29:00,82.1,74.6,30.09,WNW,299,3.0,3.0,78,0.00,,---,0.00,VWS V14.01,2013-07-09 14:29:00,
2013-07-09 10:34:00,82.2,74.7,30.09,West,275,0.0,0.0,78,0.00,,---,0.00,VWS V14.01,2013-07-09 14:34:00,
2013-07-09 10:39:00,82.6,74.7,30.09,South,169,0.0,0.0,77,0.00,,---,0.00,VWS V14.01,2013-07-09 14:39:00,
2013-07-09 10:44:00,82.8,74.9,30.09,NW,316,0.0,2.0,77,0.00,,---,0.00,VWS V14.01,2013-07-09 14:44:00,
2013-07-09 10:49:00,82.7,74.4,30.08,SW,232,0.0,2.0,76,0.00,,---,0.00,VWS V14.01,2013-07-09 14:49:00,
2013-07-09 10:54:00,83.0,75.1,30.08,SW,219,0.0,0.0,77,0.00,,---,0.00,VWS V14.01,2013-07-09 14:54:00,
2013-07-09 10:59:00,83.0,74.7,30.08,NW,316,3.0,3.0,76,0.00,,---,0.00,VWS V14.01,2013-07-09 14:59:00,
2013-07-09 11:04:00,82.9,75.3,30.08,WSW,247,0.0,2.0,78,0.00,,---,0.00,VWS V14.01,2013-07-09 15:04:00,
2013-07-09 11:09:00,82.8,75.2,30.08,WSW,250,2.0,3.0,78,0.00,,---,0.00,VWS V14.01,2013-07-09 15:09:00,
2013-07-09 11:14:00,83.3,75.3,30.08,SSW,198,0.0,3.0,77,0.00,,---,0.00,VWS V14.01,2013-07-09 15:14:00,
2013-07-09 11:19:00,83.6,74.8,30.08,SW,218,2.0,5.0,75,0.00,,---,0.00,VWS V14.01,2013-07-09 15:19:00,
2013-07-09 11:24:00,83.5,75.1,30.08,WSW,248,0.0,2.0,76,0.00,,---,0.00,VWS V14.01,2013-07-09 15:24:00,
2013-07-09 11:29:00,83.3,74.9,30.08,ESE,122,0.0,0.0,76,0.00,,---,0.00,VWS V14.01,2013-07-09 15:29:00,
2013-07-09 11:34:00,83.2,75.2,30.08,SW,230,0.0,0.0,77,0.00,,---,0.00,VWS V14.01,2013-07-09 15:34:00,
2013-07-09 11:39:00,84.0,76.0,30.08,SE,143,1.0,3.0,77,0.00,,---,0.00,VWS V14.01,2013-07-09 15:39:00,
2013-07-09 11:44:00,84.8,76.4,30.08,SE,146,0.0,1.0,76,0.00,,---,0.00,VWS V14.01,2013-07-09 15:44:00,
2013-07-09 11:49:00,85.6,76.0,30.08,West,271,1.0,4.0,73,0.00,,---,0.00,VWS V14.01,2013-07-09 15:49:00,
2013-07-09 11:54:00,85.8,76.2,30.08,SW,228,2.0,2.0,73,0.00,,---,0.00,VWS V14.01,2013-07-09 15:54:00,
2013-07-09 11:59:00,85.8,76.6,30.08,WSW,245,2.0,2.0,74,0.00,,---,0.00,VWS V14.01,2013-07-09 15:59:00,
2013-07-09 12:04:00,85.9,75.8,30.07,WSW,239,0.0,1.0,72,0.00,,---,0.00,VWS V14.01,2013-07-09 16:04:00,
2013-07-09 12:09:00,86.6,75.7,30.08,ENE,60,0.0,3.0,70,0.00,,---,0.00,VWS V14.01,2013-07-09 16:09:00,
2013-07-09 12:14:00,86.7,74.9,30.07,NW,315,1.0,8.0,68,0.00,,---,0.00,VWS V14.01,2013-07-09 16:14:00,
2013-07-09 12:19:00,86.1,75.2,30.08,West,268,0.0,4.0,70,0.00,,---,0.00,VWS V14.01,2013-07-09 16:19:00,
2013-07-09 12:24:00,85.6,74.7,30.07,West,263,1.0,3.0,70,0.00,,---,0.00,VWS V14.01,2013-07-09 16:24:00,
2013-07-09 12:29:00,85.3,75.7,30.07,West,275,0.0,1.0,73,0.00,,---,0.00,VWS V14.01,2013-07-09 16:29:00,
2013-07-09 12:34:00,85.3,75.2,30.08,SSW,204,0.0,2.0,72,0.00,,---,0.00,VWS V14.01,2013-07-09 16:34:00,
2013-07-09 12:39:00,85.2,74.7,30.08,WNW,291,2.0,3.0,71,0.00,,---,0.00,VWS V14.01,2013-07-09 16:39:00,
2013-07-09 12:44:00,85.0,74.1,30.08,WSW,257,0.0,2.0,70,0.00,,---,0.00,VWS V14.01,2013-07-09 16:44:00,
2013-07-09 12:49:00,84.8,75.6,30.08,SW,216,0.0,0.0,74,0.00,,---,0.00,VWS V14.01,2013-07-09 16:49:00,
2013-07-09 12:54:00,84.9,74.9,30.07,WSW,257,0.0,0.0,72,0.00,,---,0.00,VWS V14.01,2013-07-09 16:54:00,
2013-07-09 12:59:00,85.2,75.2,30.07,West,281,0.0,1.0,72,0.00,,---,0.00,VWS V14.01,2013-07-09 16:59:00,
2013-07-09 13:04:00,85.4,75.8,30.07,NW,313,2.0,4.0,73,0.00,,---,0.00,VWS V14.01,2013-07-09 17:04:00,
2013-07-09 13:09:00,85.2,73.9,30.07,WNW,290,2.0,3.0,69,0.00,,---,0.00,VWS V14.01,2013-07-09 17:09:00,
2013-07-09 13:14:00,85.1,74.6,30.07,SSE,162,0.0,0.0,71,0.00,,---,0.00,VWS V14.01,2013-07-09 17:14:00,
2013-07-09 13:18:00,85.3,75.7,30.07,SW,236,0.0,1.0,73,0.00,,---,0.00,VWS V14.01,2013-07-09 17:18:00,
2013-07-09 13:23:00,85.4,75.8,30.07,SW,214,0.0,0.0,73,0.00,,---,0.00,VWS V14.01,2013-07-09 17:23:00,
2013-07-09 13:28:00,85.4,74.9,30.07,SE,131,0.0,0.0,71,0.00,,---,0.00,VWS V14.01,2013-07-09 17:28:00,
2013-07-09 13:33:00,85.4,75.8,30.07,WNW,292,0.0,0.0,73,0.00,,---,0.00,VWS V14.01,2013-07-09 17:33:00,
2013-07-09 13:38:00,85.0,75.0,30.07,NE,39,0.0,0.0,72,0.00,,---,0.00,VWS V14.01,2013-07-09 17:38:00,
2013-07-09 13:43:00,84.8,75.6,30.07,NE,34,0.0,1.0,74,0.00,,---,0.00,VWS V14.01,2013-07-09 17:43:00,
2013-07-09 13:48:00,84.8,75.6,30.07,West,260,0.0,1.0,74,0.00,,---,0.00,VWS V14.01,2013-07-09 17:48:00,
2013-07-09 13:53:00,84.8,75.2,30.07,West,263,1.0,3.0,73,0.00,,---,0.00,VWS V14.01,2013-07-09 17:53:00,
2013-07-09 13:58:00,84.6,75.8,30.07,SW,215,0.0,0.0,75,0.00,,---,0.00,VWS V14.01,2013-07-09 17:58:00,
2013-07-09 14:03:00,84.6,75.8,30.07,WSW,242,0.0,0.0,75,0.00,,---,0.00,VWS V14.01,2013-07-09 18:03:00,
2013-07-09 14:08:00,84.7,76.3,30.07,WSW,242,0.0,0.0,76,0.00,,---,0.00,VWS V14.01,2013-07-09 18:08:00,
2013-07-09 14:13:00,84.9,75.7,30.07,WNW,294,2.0,3.0,74,0.00,,---,0.00,VWS V14.01,2013-07-09 18:13:00,
2013-07-09 14:18:00,84.7,75.5,30.07,WSW,256,0.0,0.0,74,0.00,,---,0.00,VWS V14.01,2013-07-09 18:18:00,
2013-07-09 14:23:00,84.6,75.0,30.07,South,170,0.0,0.0,73,0.00,,---,0.00,VWS V14.01,2013-07-09 18:23:00,
2013-07-09 14:28:00,85.0,75.8,30.07,West,275,0.0,0.0,74,0.00,,---,0.00,VWS V14.01,2013-07-09 18:28:00,
2013-07-09 14:33:00,85.4,76.2,30.07,South,180,0.0,0.0,74,0.00,,---,0.00,VWS V14.01,2013-07-09 18:33:00,
2013-07-09 14:38:00,86.0,76.8,30.06,East,100,1.0,2.0,74,0.00,,---,0.00,VWS V14.01,2013-07-09 18:38:00,
2013-07-09 14:43:00,86.4,76.3,30.06,SSE,156,0.0,1.0,72,0.00,,---,0.00,VWS V14.01,2013-07-09 18:43:00,
2013-07-09 14:48:00,86.9,75.9,30.06,SSW,204,1.0,1.0,70,0.00,,---,0.00,VWS V14.01,2013-07-09 18:48:00,
2013-07-09 14:53:00,86.8,75.4,30.06,West,260,2.0,3.0,69,0.00,,---,0.00,VWS V14.01,2013-07-09 18:53:00,
2013-07-09 14:58:00,86.3,76.6,30.05,SW,223,0.0,0.0,73,0.00,,---,0.00,VWS V14.01,2013-07-09 18:58:00,
2013-07-09 15:03:00,86.6,76.1,30.05,SW,218,0.0,1.0,71,0.00,,---,0.00,VWS V14.01,2013-07-09 19:03:00,
2013-07-09 15:08:00,86.6,75.7,30.05,SW,236,0.0,0.0,70,0.00,,---,0.00,VWS V14.01,2013-07-09 19:08:00,
2013-07-09 15:13:00,86.9,76.8,30.04,SSW,197,2.0,3.0,72,0.00,,---,0.00,VWS V14.01,2013-07-09 19:13:00,
2013-07-09 15:18:00,87.0,76.0,30.04,SSW,208,0.0,0.0,70,0.00,,---,0.00,VWS V14.01,2013-07-09 19:18:00,
2013-07-09 15:23:00,87.2,77.1,30.04,East,83,0.0,0.0,72,0.00,,---,0.00,VWS V14.01,2013-07-09 19:23:00,
2013-07-09 15:28:00,87.3,76.8,30.03,SW,233,0.0,0.0,71,0.00,,---,0.00,VWS V14.01,2013-07-09 19:28:00,
2013-07-09 15:33:00,87.0,75.6,30.03,SE,140,0.0,0.0,69,0.00,,---,0.00,VWS V14.01,2013-07-09 19:33:00,
2013-07-09 15:38:00,87.3,77.2,30.03,ENE,72,0.0,0.0,72,0.00,,---,0.00,VWS V14.01,2013-07-09 19:38:00,
2013-07-09 15:43:00,87.6,75.3,30.03,ESE,117,1.0,2.0,67,0.00,,---,0.00,VWS V14.01,2013-07-09 19:43:00,
2013-07-09 15:48:00,87.7,76.7,30.03,ESE,106,0.0,0.0,70,0.00,,---,0.00,VWS V14.01,2013-07-09 19:48:00,
2013-07-09 15:53:00,88.5,76.2,30.03,East,88,0.0,0.0,67,0.00,,---,0.00,VWS V14.01,2013-07-09 19:53:00,
2013-07-09 15:58:00,88.9,77.0,30.02,SSW,207,1.0,1.0,68,0.00,,---,0.00,VWS V14.01,2013-07-09 19:58:00,
2013-07-09 16:03:00,89.0,76.2,30.02,East,91,2.0,2.0,66,0.00,,---,0.00,VWS V14.01,2013-07-09 20:03:00,
2013-07-09 16:08:00,88.8,76.9,30.02,SE,132,0.0,0.0,68,0.00,,---,0.00,VWS V14.01,2013-07-09 20:08:00,
2013-07-09 16:13:00,89.3,76.9,30.02,SSW,195,0.0,0.0,67,0.00,,---,0.00,VWS V14.01,2013-07-09 20:13:00,
2013-07-09 16:18:00,89.6,76.3,30.02,SW,222,0.0,1.0,65,0.00,,---,0.00,VWS V14.01,2013-07-09 20:18:00,
2013-07-09 16:23:00,89.7,77.3,30.01,SSW,200,1.0,1.0,67,0.00,,---,0.00,VWS V14.01,2013-07-09 20:23:00,
2013-07-09 16:28:00,89.9,76.6,30.01,West,259,0.0,1.0,65,0.00,,---,0.00,VWS V14.01,2013-07-09 20:28:00,
2013-07-09 16:33:00,89.3,76.5,30.01,WSW,250,0.0,0.0,66,0.00,,---,0.00,VWS V14.01,2013-07-09 20:33:00,
2013-07-09 16:38:00,89.8,76.9,30.01,South,188,0.0,0.0,66,0.00,,---,0.00,VWS V14.01,2013-07-09 20:38:00,
2013-07-09 16:43:00,90.5,78.5,30.00,SW,219,0.0,0.0,68,0.00,,---,0.00,VWS V14.01,2013-07-09 20:43:00,
2013-07-09 16:48:00,90.9,77.0,30.00,WSW,250,0.0,2.0,64,0.00,,---,0.00,VWS V14.01,2013-07-09 20:48:00,
2013-07-09 16:53:00,90.9,77.0,30.00,SSE,154,0.0,1.0,64,0.00,,---,0.00,VWS V14.01,2013-07-09 20:53:00,
2013-07-09 16:58:00,90.3,77.4,29.99,South,173,1.0,3.0,66,0.00,,---,0.00,VWS V14.01,2013-07-09 20:58:00,
2013-07-09 17:03:00,89.7,74.5,29.99,ENE,74,2.0,3.0,61,0.00,,---,0.00,VWS V14.01,2013-07-09 21:03:00,
2013-07-09 17:08:00,89.2,73.0,29.99,SSW,208,0.0,5.0,59,0.00,,---,0.00,VWS V14.01,2013-07-09 21:08:00,
2013-07-09 17:13:00,89.1,74.4,29.99,South,174,0.0,1.0,62,0.00,,---,0.00,VWS V14.01,2013-07-09 21:13:00,
2013-07-09 17:18:00,89.2,73.5,29.99,SE,142,0.0,3.0,60,0.00,,---,0.00,VWS V14.01,2013-07-09 21:18:00,
2013-07-09 17:23:00,89.7,73.5,30.00,SSE,160,0.0,1.0,59,0.00,,---,0.00,VWS V14.01,2013-07-09 21:23:00,
2013-07-09 17:28:00,89.9,72.6,30.00,SSW,211,3.0,3.0,57,0.00,,---,0.00,VWS V14.01,2013-07-09 21:28:00,
2013-07-09 17:33:00,89.7,74.0,29.99,NE,53,0.0,0.0,60,0.00,,---,0.00,VWS V14.01,2013-07-09 21:33:00,
2013-07-09 17:38:00,89.8,73.1,30.00,West,280,0.0,1.0,58,0.00,,---,0.00,VWS V14.01,2013-07-09 21:38:00,
2013-07-09 17:43:00,89.8,74.6,29.99,SSW,205,0.0,1.0,61,0.00,,---,0.00,VWS V14.01,2013-07-09 21:43:00,
2013-07-09 17:48:00,90.0,74.8,30.00,SE,146,0.0,1.0,61,0.00,,---,0.00,VWS V14.01,2013-07-09 21:48:00,
2013-07-09 17:53:00,89.9,74.7,29.99,SSW,210,1.0,1.0,61,0.00,,---,0.00,VWS V14.01,2013-07-09 21:53:00,
2013-07-09 17:58:00,89.5,73.3,29.99,West,259,0.0,1.0,59,0.00,,---,0.00,VWS V14.01,2013-07-09 21:58:00,
2013-07-09 18:03:00,89.7,75.4,30.00,SW,219,0.0,0.0,63,0.00,,---,0.00,VWS V14.01,2013-07-09 22:03:00,
2013-07-09 18:08:00,90.0,74.3,30.00,South,191,0.0,1.0,60,0.00,,---,0.00,VWS V14.01,2013-07-09 22:08:00,
2013-07-09 18:13:00,89.6,73.9,29.99,West,268,0.0,0.0,60,0.00,,---,0.00,VWS V14.01,2013-07-09 22:13:00,
2013-07-09 18:18:00,89.4,74.2,29.99,SSW,199,0.0,1.0,61,0.00,,---,0.00,VWS V14.01,2013-07-09 22:18:00,
2013-07-09 18:23:00,89.6,74.4,29.99,SE,139,0.0,0.0,61,0.00,,---,0.00,VWS V14.01,2013-07-09 22:23:00,
2013-07-09 18:28:00,89.6,75.3,29.99,SW,226,0.0,1.0,63,0.00,,---,0.00,VWS V14.01,2013-07-09 22:28:00,
2013-07-09 18:33:00,89.5,74.3,29.99,WSW,239,0.0,3.0,61,0.00,,---,0.00,VWS V14.01,2013-07-09 22:33:00,
2013-07-09 18:38:00,89.5,74.8,29.99,East,92,0.0,0.0,62,0.00,,---,0.00,VWS V14.01,2013-07-09 22:38:00,
2013-07-09 18:43:00,89.7,75.0,29.99,ESE,107,0.0,0.0,62,0.00,,---,0.00,VWS V14.01,2013-07-09 22:43:00,
2013-07-09 18:48:00,90.0,75.2,29.99,North,8,0.0,1.0,62,0.00,,---,0.00,VWS V14.01,2013-07-09 22:48:00,
2013-07-09 18:53:00,89.9,75.1,29.99,SW,219,0.0,0.0,62,0.00,,---,0.00,VWS V14.01,2013-07-09 22:53:00,
2013-07-09 18:58:00,90.3,75.5,29.99,SW,235,0.0,2.0,62,0.00,,---,0.00,VWS V14.01,2013-07-09 22:58:00,
2013-07-09 19:03:00,90.2,74.9,29.99,SE,127,0.0,0.0,61,0.00,,---,0.00,VWS V14.01,2013-07-09 23:03:00,
2013-07-09 19:08:00,89.9,75.1,29.99,SW,221,0.0,1.0,62,0.00,,---,0.00,VWS V14.01,2013-07-09 23:08:00,
2013-07-09 19:13:00,89.9,76.1,29.99,South,176,0.0,0.0,64,0.00,,---,0.00,VWS V14.01,2013-07-09 23:13:00,
2013-07-09 19:18:00,90.2,75.9,29.99,South,174,0.0,0.0,63,0.00,,---,0.00,VWS V14.01,2013-07-09 23:18:00,
2013-07-09 19:23:00,90.3,75.5,29.99,South,174,0.0,0.0,62,0.00,,---,0.00,VWS V14.01,2013-07-09 23:23:00,
2013-07-09 19:28:00,89.8,75.5,29.99,South,174,0.0,0.0,63,0.00,,---,0.00,VWS V14.01,2013-07-09 23:28:00,
2013-07-09 19:33:00,88.7,75.9,29.99,South,176,0.0,0.0,66,0.00,,---,0.00,VWS V14.01,2013-07-09 23:33:00,
2013-07-09 19:38:00,88.3,75.1,29.98,South,174,0.0,0.0,65,0.00,,---,0.00,VWS V14.01,2013-07-09 23:38:00,
2013-07-09 19:43:00,88.3,75.5,29.98,South,174,0.0,0.0,66,0.00,,---,0.00,VWS V14.01,2013-07-09 23:43:00,
2013-07-09 19:48:00,88.6,75.3,29.98,South,174,0.0,0.0,65,0.00,,---,0.00,VWS V14.01,2013-07-09 23:48:00,
2013-07-09 19:53:00,88.6,76.2,29.98,South,174,0.0,0.0,67,0.00,,---,0.00,VWS V14.01,2013-07-09 23:53:00,
2013-07-09 19:58:00,88.2,76.3,29.98,South,175,0.0,0.0,68,0.00,,---,0.00,VWS V14.01,2013-07-09 23:58:00,
2013-07-09 20:03:00,88.2,76.3,29.98,South,174,0.0,0.0,68,0.00,,---,0.00,VWS V14.01,2013-07-10 00:03:00,
2013-07-09 20:08:00,88.1,76.2,29.98,South,175,0.0,0.0,68,0.00,,---,0.00,VWS V14.01,2013-07-10 00:08:00,
2013-07-09 20:12:00,88.3,76.0,29.98,South,175,0.0,0.0,67,0.00,,---,0.00,VWS V14.01,2013-07-10 00:12:00,
2013-07-09 20:17:00,88.4,76.1,29.98,South,174,0.0,0.0,67,0.00,,---,0.00,VWS V14.01,2013-07-10 00:17:00,
2013-07-09 20:22:00,88.3,76.0,29.98,South,174,0.0,0.0,67,0.00,,---,0.00,VWS V14.01,2013-07-10 00:22:00,
2013-07-09 20:27:00,87.9,76.0,29.98,South,174,0.0,0.0,68,0.00,,---,0.00,VWS V14.01,2013-07-10 00:27:00,
2013-07-09 20:32:00,86.9,76.8,29.98,South,174,0.0,0.0,72,0.00,,---,0.00,VWS V14.01,2013-07-10 00:32:00,
2013-07-09 20:37:00,85.8,76.2,29.98,South,174,0.0,0.0,73,0.00,,---,0.00,VWS V14.01,2013-07-10 00:37:00,
2013-07-09 20:42:00,84.9,75.7,29.98,South,174,0.0,0.0,74,0.00,,---,0.00,VWS V14.01,2013-07-10 00:42:00,
2013-07-09 20:47:00,84.2,75.8,29.98,South,174,0.0,0.0,76,0.00,,---,0.00,VWS V14.01,2013-07-10 00:47:00,
2013-07-09 20:52:00,83.5,75.1,29.98,South,175,0.0,0.0,76,0.00,,---,0.00,VWS V14.01,2013-07-10 00:52:00,
2013-07-09 20:57:00,82.6,74.7,29.98,South,174,0.0,0.0,77,0.00,,---,0.00,VWS V14.01,2013-07-10 00:57:00,
2013-07-09 21:02:00,81.9,74.4,29.98,South,174,0.0,0.0,78,0.00,,---,0.00,VWS V14.01,2013-07-10 01:02:00,
2013-07-09 21:07:00,81.2,74.1,29.98,South,174,0.0,0.0,79,0.00,,---,0.00,VWS V14.01,2013-07-10 01:07:00,
2013-07-09 21:12:00,80.7,74.3,29.98,South,174,0.0,0.0,81,0.00,,---,0.00,VWS V14.01,2013-07-10 01:12:00,
2013-07-09 21:17:00,80.3,74.3,29.98,South,174,0.0,0.0,82,0.00,,---,0.00,VWS V14.01,2013-07-10 01:17:00,
2013-07-09 21:22:00,79.9,74.3,29.98,South,174,0.0,0.0,83,0.00,,---,0.00,VWS V14.01,2013-07-10 01:22:00,
2013-07-09 21:27:00,79.5,74.2,29.98,South,174,0.0,0.0,84,0.00,,---,0.00,VWS V14.01,2013-07-10 01:27:00,
2013-07-09 21:32:00,79.1,73.8,29.97,South,174,0.0,0.0,84,0.00,,---,0.00,VWS V14.01,2013-07-10 01:32:00,
2013-07-09 21:37:00,78.7,73.8,29.97,South,174,0.0,0.0,85,0.00,,---,0.00,VWS V14.01,2013-07-10 01:37:00,
2013-07-09 21:42:00,78.3,73.4,29.98,South,174,0.0,0.0,85,0.00,,---,0.00,VWS V14.01,2013-07-10 01:42:00,
2013-07-09 21:47:00,78.0,73.5,29.98,South,174,0.0,0.0,86,0.00,,---,0.00,VWS V14.01,2013-07-10 01:47:00,
2013-07-09 21:52:00,77.7,73.2,29.98,South,174,0.0,0.0,86,0.00,,---,0.00,VWS V14.01,2013-07-10 01:52:00,
2013-07-09 21:57:00,77.6,73.4,29.98,South,174,0.0,0.0,87,0.00,,---,0.00,VWS V14.01,2013-07-10 01:57:00,
2013-07-09 22:02:00,77.5,73.3,29.99,South,174,0.0,0.0,87,0.00,,---,0.00,VWS V14.01,2013-07-10 02:02:00,
2013-07-09 22:07:00,77.3,73.1,29.99,South,174,0.0,0.0,87,0.00,,---,0.00,VWS V14.01,2013-07-10 02:07:00,
2013-07-09 22:12:00,77.1,73.3,29.99,South,175,0.0,0.0,88,0.00,,---,0.00,VWS V14.01,2013-07-10 02:12:00,
2013-07-09 22:17:00,76.8,73.0,29.99,South,174,0.0,0.0,88,0.00,,---,0.00,VWS V14.01,2013-07-10 02:17:00,
2013-07-09 22:22:00,76.6,73.1,30.00,South,175,0.0,0.0,89,0.00,,---,0.00,VWS V14.01,2013-07-10 02:22:00,
2013-07-09 22:27:00,76.4,72.9,30.00,South,174,0.0,0.0,89,0.00,,---,0.00,VWS V14.01,2013-07-10 02:27:00,
2013-07-09 22:32:00,76.2,72.7,30.00,South,174,0.0,0.0,89,0.00,,---,0.00,VWS V14.01,2013-07-10 02:32:00,
2013-07-09 22:37:00,76.1,73.0,29.99,South,175,0.0,0.0,90,0.00,,---,0.00,VWS V14.01,2013-07-10 02:37:00,
2013-07-09 22:42:00,75.9,72.8,30.00,South,174,0.0,0.0,90,0.00,,---,0.00,VWS V14.01,2013-07-10 02:42:00,
2013-07-09 22:47:00,75.8,72.7,30.00,South,174,0.0,0.0,90,0.00,,---,0.00,VWS V14.01,2013-07-10 02:47:00,
2013-07-09 22:52:00,75.7,72.9,29.99,South,174,0.0,0.0,91,0.00,,---,0.00,VWS V14.01,2013-07-10 02:52:00,
2013-07-09 22:57:00,75.5,72.7,30.00,South,174,0.0,0.0,91,0.00,,---,0.00,VWS V14.01,2013-07-10 02:57:00,
2013-07-09 23:02:00,75.4,72.6,29.99,South,174,0.0,0.0,91,0.00,,---,0.00,VWS V14.01,2013-07-10 03:02:00,
2013-07-09 23:07:00,75.3,72.5,29.99,South,174,0.0,0.0,91,0.00,,---,0.00,VWS V14.01,2013-07-10 03:07:00,
2013-07-09 23:12:00,75.2,72.4,29.99,South,174,0.0,0.0,91,0.00,,---,0.00,VWS V14.01,2013-07-10 03:12:00,
2013-07-09 23:17:00,75.1,72.6,29.99,South,175,0.0,0.0,92,0.00,,---,0.00,VWS V14.01,2013-07-10 03:17:00,
2013-07-09 23:22:00,75.0,72.5,29.99,South,174,0.0,0.0,92,0.00,,---,0.00,VWS V14.01,2013-07-10 03:22:00,
2013-07-09 23:27:00,74.9,72.4,29.99,South,174,0.0,0.0,92,0.00,,---,0.00,VWS V14.01,2013-07-10 03:27:00,
2013-07-09 23:32:00,74.9,72.4,29.99,South,174,0.0,0.0,92,0.00,,---,0.00,VWS V14.01,2013-07-10 03:32:00,
2013-07-09 23:37:00,74.9,72.4,29.99,South,174,0.0,0.0,92,0.00,,---,0.00,VWS V14.01,2013-07-10 03:37:00,
2013-07-09 23:42:00,74.9,72.4,29.99,South,175,0.0,0.0,92,0.00,,---,0.00,VWS V14.01,2013-07-10 03:42:00,
2013-07-09 23:47:00,74.8,72.3,29.99,South,174,0.0,0.0,92,0.00,,---,0.00,VWS V14.01,2013-07-10 03:47:00,
2013-07-09 23:52:00,74.9,72.4,29.99,South,176,0.0,0.0,92,0.00,,---,0.00,VWS V14.01,2013-07-10 03:52:00,
2013-07-09 23:57:00,74.8,72.3,29.99,South,176,0.0,0.0,92,0.00,,---,0.00,VWS V14.01,2013-07-10 03:57:00,